Location: Cazavet
(43.0017°N, 1.0431°E)
Time: 22:48:47
(UTC+00:00)

BREEZE-M DEB (TANK) - Pass Details

Date: 18 January 2026
Orbit: 327 x 13404 km, 49.6° (Epoch: 13 February)

Event Time Altitude Azimuth Distance (km) Brightness Sun altitude
Exits shadow 04:44:24 74° 271° (W) 1,106 4.0 -28.6°
Maximum altitude 04:44:58 83° 334° (NNW) 1,154 4.2 -28.5°
Drops below altitude 10° 05:00:35 10° 65° (ENE) 6,976 9.1 -25.6°
Sets 05:10:42 0° 67° (ENE) 10,263 10.2 -23.8°
